Location: *
(0.1100°N, 5.5000°E)
Time: 21:08:50
(UTC+00:00)

Tiangong - Visible Passes

Search period start: 02 December 2023 00:00
Search period end: 12 December 2023 00:00
Orbit: 373 x 384 km, 41.5° (Epoch: 02 December)

Date Brightness Start Highest point End Pass type
(mag) Time Alt. Az. Time Alt. Az. Time Alt. Az.
06 Dec -1.9 18:33:18 10° NNW 18:36:19 44° NE 18:36:48 40° ENE visible
07 Dec 0.5 19:08:36 10° W 19:11:02 21° SW 19:12:56 13° S visible
08 Dec -1.7 18:06:05 10° NW 18:09:11 63° SW 18:12:17 10° SE visible
10 Dec 0.6 04:33:58 10° S 04:36:24 21° SE 04:38:51 10° E visible
